アタール-モーリー彗星

C/2022 N1 ( Attard-Maury )

English version
Home page
Updated on May 15, 2024

---------------------------------------------------------------------

・ プロフィール

発見日 2022年7月2日
発見光度 17.2等
発見者 Georges Attard and Alain Maury (San Pedro de Atacama, Chile)

・ 写真集

・ 軌道要素

Epoch 2024 Mar. 31.0 TT = JDT 2460400.5                                         
T 2022 Sept. 10.05025 TT                                Rudenko                 
q   1.4805671            (2000.0)            P               Q                  
z  +0.0270217      Peri.   41.04692     -0.13973923     -0.96461393             
 +/-0.0002575      Node   301.87395     -0.96329834     +0.08016726             
e   0.9599926      Incl.  164.73450     -0.22919262     +0.25118353             
>From 224 observations 2022 June 29-Sept. 19, mean residual 0".7.                

・ 星図

・ 光度変化

        m1 = 15.5 + 5 logΔ + 10.0 log r

---------------------------------------------------------------------

軌道要素はM.P.E.C. 2024-G193に掲載されたものです。
星図はステラナビゲータ Ver.10 (アストロアーツ) で作成したものです。
光度グラフはComet for Windowsで作成したものです。

---------------------------------------------------------------------

Copyright(C) Seiichi Yoshida (comet@aerith.net). All rights reserved.